Theta_e
289 283 279 278 279 282 283 284 285 284 283 284 282 280 281 278 280 282 284 285 286 284 279 283 283 283 285 286 288 289 288 289 288 288 288 288 288 288 289 290 290 291 292 295 296 295 295 295 294 294 293 293 294 293 294 294 293 293 293 291 291 291 289 288 286 285 284 283 281 281 282 283 283 283 283 283 283 283 283 283 283 283 283 283 284 283
288 284 283 282 283 284 285 284 284 285 284 284 282 279 280 279 277 284 284 286 285 284 280 281 282 284 285 286 287 288 288 287 287 286 287 287 286 288 288 289 289 290 292 294 295 297 297 297 296 294 293 294 296 294 292 293 293 293 291 291 291 289 288 288 288 287 285 285 285 284 283 283 283 283 283 283 283 283 283 283 283 283 283 282 283 284
283 283 285 286 285 286 284 284 284 285 284 280 281 279 275 279 280 282 282 283 285 284 280 280 282 284 285 285 286 285 286 287 287 287 287 286 287 288 289 288 289 290 291 292 293 294 295 295 295 294 293 292 292 292 291 291 292 291 291 290 290 289 289 288 288 287 286 286 285 283 282 282 281 282 284 283 284 284 283 283 283 283 282 282 282 283
282 283 286 286 285 285 283 283 281 280 280 280 279 277 277 279 278 277 281 282 286 281 279 280 280 283 282 283 285 285 285 286 287 287 287 287 286 287 288 288 289 289 290 291 290 291 291 291 292 293 294 294 292 292 292 292 291 291 292 291 290 290 289 288 288 289 287 285 284 283 282 281 282 280 283 282 282 282 282 282 282 282 282 282 282 282
283 287 287 285 282 285 284 281 282 281 280 280 279 276 276 280 281 280 281 282 282 279 282 281 277 277 277 281 283 286 285 286 287 286 286 286 286 287 288 288 288 289 289 289 290 290 290 290 291 291 292 293 293 293 293 293 293 294 293 293 291 290 289 289 289 289 286 286 283 282 283 283 281 281 280 279 280 281 282 282 281 282 283 282 282 282
283 287 287 283 282 281 282 282 282 281 279 277 277 281 281 281 280 280 280 280 278 276 281 281 271 271 275 279 281 282 283 284 284 284 285 285 286 286 287 287 288 289 289 289 289 289 289 289 289 290 290 291 292 293 295 294 294 293 294 293 291 289 288 289 288 288 286 286 284 282 281 281 280 280 279 279 279 280 280 281 283 282 282 282 282 282
285 286 285 285 281 280 280 281 283 281 277 274 281 279 281 280 279 279 279 277 273 274 277 281 274 272 276 278 280 280 280 282 283 282 284 284 285 285 287 287 287 288 289 289 288 289 290 290 290 291 291 291 291 292 293 293 293 293 293 292 291 291 289 289 288 287 287 285 284 284 284 284 283 282 282 283 282 281 281 282 281 282 282 282 282 282
286 283 283 281 281 280 280 280 282 282 276 277 279 280 281 280 279 279 277 276 276 277 279 279 274 273 271 280 278 278 278 280 279 281 284 284 284 284 285 287 288 288 288 289 288 287 288 288 288 289 290 291 291 291 292 293 294 293 293 292 291 290 291 289 287 287 287 286 285 284 284 284 284 283 284 284 282 281 281 280 281 281 281 281 282 282
284 284 282 283 280 281 282 283 283 282 281 281 281 281 281 281 280 279 277 276 275 275 273 276 279 274 267 277 279 278 280 279 278 280 282 283 284 284 285 287 287 288 288 289 288 288 287 288 289 289 290 291 291 292 291 292 292 293 292 291 289 290 289 290 287 287 286 287 286 285 285 284 285 285 285 285 283 281 281 280 280 280 281 281 282 282
284 284 284 284 280 281 282 282 282 283 282 281 281 282 279 278 280 279 275 276 271 271 266 275 278 272 273 278 279 275 279 277 276 278 281 283 283 283 285 286 287 287 287 287 287 287 287 288 288 289 289 290 290 290 291 291 292 292 291 291 290 289 289 288 287 287 286 286 287 285 284 284 284 285 284 281 281 280 279 279 279 279 280 280 281 281
285 287 288 285 284 285 284 283 282 282 283 283 280 280 278 277 275 275 274 271 267 264 267 275 278 276 269 276 278 278 279 278 278 280 281 282 282 283 283 285 286 287 287 286 286 287 287 287 287 287 289 288 289 289 289 290 290 290 290 291 290 290 288 288 288 286 286 286 286 286 285 284 284 284 283 281 281 280 280 279 279 279 279 280 280 281
283 283 286 284 288 285 285 282 282 282 283 281 279 278 275 273 274 271 271 268 264 265 269 272 275 276 267 272 276 278 278 277 280 280 281 281 282 283 284 285 285 285 285 285 286 287 287 287 287 286 288 287 287 288 288 288 288 289 289 289 290 291 291 289 288 286 287 286 286 285 285 285 285 284 284 282 282 282 281 281 280 280 280 279 280 280
282 285 283 284 287 285 281 279 279 279 279 282 278 279 274 266 267 263 267 269 264 264 272 273 277 274 273 276 280 283 283 283 279 282 283 281 283 282 282 284 285 285 284 286 285 286 286 286 286 286 286 286 286 286 286 287 286 287 287 287 288 289 289 290 290 288 287 286 285 285 285 285 285 284 283 283 283 283 282 282 281 281 280 280 279 279
276 278 282 281 284 285 283 279 278 276 277 281 277 270 266 263 257 258 258 262 262 273 273 276 274 273 274 277 279 279 283 283 283 282 281 282 283 283 283 284 284 285 286 286 285 285 285 285 286 286 286 286 286 286 287 287 287 287 287 287 287 287 288 288 288 288 288 287 286 286 285 285 285 285 284 283 283 283 283 282 282 281 281 280 280 280
270 271 277 281 280 283 282 282 283 280 278 277 278 278 271 264 265 263 261 263 267 270 276 275 268 264 270 276 279 283 284 284 283 281 281 282 282 281 282 283 284 287 287 286 286 286 287 286 285 286 286 285 285 286 287 287 286 286 287 287 287 287 288 288 288 288 288 288 287 286 286 285 285 285 285 284 284 284 283 283 281 281 281 280 280 280
277 274 280 282 282 284 284 283 282 282 276 277 278 276 274 272 271 266 262 265 261 267 269 267 269 268 276 281 284 280 279 281 280 282 281 282 283 281 283 285 285 285 286 286 285 286 287 286 285 286 286 286 286 286 286 286 286 286 286 286 286 286 286 287 287 287 288 288 288 286 285 285 285 286 285 285 284 284 284 283 282 281 280 280 280 280
273 272 276 281 283 282 283 282 282 282 271 277 278 273 277 276 277 267 272 273 269 265 267 265 273 275 277 281 276 279 280 282 280 280 280 281 281 280 283 285 284 286 286 286 286 287 287 286 286 286 286 286 286 286 286 286 286 286 286 286 286 286 286 286 287 287 287 287 286 286 286 285 284 284 284 284 284 284 284 283 283 282 282 281 280 280
271 276 280 279 281 283 282 282 284 283 281 276 270 274 278 278 275 272 266 262 258 261 267 268 269 271 272 272 278 280 278 282 282 282 282 281 281 282 284 284 284 285 286 287 287 287 287 286 286 286 287 286 286 286 286 286 286 286 286 285 285 286 286 286 286 287 287 287 286 286 286 285 284 284 284 284 284 284 283 283 282 282 281 281 281 281
278 269 276 277 279 280 280 282 279 283 282 282 280 279 277 267 268 268 264 262 262 262 263 270 268 268 269 274 275 277 278 281 281 282 283 283 283 283 284 284 285 285 285 285 286 286 286 286 286 286 286 286 286 287 287 287 287 286 286 286 285 285 286 286 286 286 286 286 286 286 286 285 285 284 283 284 284 283 283 282 282 281 281 281 280 281
277 270 274 277 281 280 279 278 272 273 277 281 281 281 279 275 268 267 269 263 264 263 262 267 268 271 271 270 274 278 280 280 281 282 282 282 282 283 283 283 284 284 284 284 285 285 285 285 286 286 286 286 286 286 286 286 286 286 286 285 285 286 285 285 286 286 286 286 285 285 285 284 283 283 283 283 283 283 282 282 282 282 281 281 281 281
276 275 267 275 277 276 274 275 276 277 274 273 273 270 275 272 274 272 269 269 269 260 260 260 266 272 277 275 279 280 280 281 281 281 281 281 282 283 283 283 283 283 284 284 284 284 285 285 286 286 287 287 287 287 287 287 286 286 286 286 285 285 285 285 286 285 286 286 285 285 284 284 284 283 283 282 282 282 282 282 282 281 281 281 280 281
271 272 270 273 276 273 277 276 279 278 278 277 274 271 274 270 274 268 269 265 265 268 264 262 268 275 281 283 282 280 281 282 282 281 281 281 282 282 282 283 283 283 284 284 284 284 284 285 286 287 287 287 287 287 287 287 287 287 287 287 286 285 285 285 286 286 286 286 285 284 284 284 284 283 282 281 281 281 282 282 281 281 281 280 280 281
279 275 272 271 273 277 280 278 279 280 278 277 277 277 273 269 267 267 265 267 263 267 263 267 265 273 280 281 281 281 281 281 282 282 281 282 282 282 283 283 283 284 284 284 284 284 284 285 285 286 286 286 286 286 286 287 287 287 287 287 286 285 285 286 286 286 286 285 285 285 285 284 283 283 282 281 281 281 281 281 281 281 280 280 280 280
284 270 266 273 276 276 278 276 278 276 280 279 277 276 275 274 274 272 271 267 267 270 268 263 265 274 280 281 281 281 281 281 282 281 281 282 282 283 283 284 284 284 284 284 284 284 284 284 285 285 284 285 285 285 285 286 287 287 287 286 286 285 285 285 285 285 285 285 285 285 284 284 283 282 282 281 281 280 281 281 281 280 280 280 280 280
271 271 272 266 268 275 274 275 279 277 279 277 276 274 275 274 271 267 268 264 269 274 274 268 266 271 278 280 281 281 280 280 280 280 281 280 281 282 283 284 284 284 284 283 283 283 283 283 283 283 284 284 284 285 285 285 286 285 285 285 285 285 285 285 285 285 285 284 284 284 284 283 283 282 282 281 281 281 281 280 280 280 279 279 279 279
274 273 270 267 266 266 267 268 271 274 276 278 278 277 273 273 272 273 270 265 268 267 271 263 267 278 279 279 279 280 279 279 280 280 281 281 280 281 283 284 284 284 283 283 282 282 282 282 283 283 283 284 284 284 284 284 284 284 284 284 284 284 284 285 285 285 284 284 284 284 284 284 283 283 283 282 282 282 282 281 280 280 279 279 279 279
270 272 274 269 267 269 273 275 279 279 277 274 277 278 277 274 271 271 269 266 267 270 269 274 275 275 275 276 277 278 278 279 279 279 279 280 281 281 282 283 284 284 283 282 282 282 282 282 282 283 283 283 283 283 284 284 284 284 284 284 284 284 284 284 285 285 284 284 284 284 284 284 284 284 284 283 283 283 282 281 280 279 279 279 278 278
267 269 274 275 273 276 278 277 279 278 276 277 276 276 277 276 273 270 268 270 276 270 268 275 275 273 274 276 277 277 278 279 280 279 279 280 280 281 281 282 284 284 282 281 281 281 281 281 282 282 282 283 283 283 283 283 283 283 283 283 283 283 284 284 284 284 284 284 284 284 285 285 285 285 285 285 284 282 282 281 281 280 279 278 277 278
270 269 268 270 270 275 277 277 278 277 277 277 276 275 275 276 275 271 271 275 275 267 269 274 275 274 275 276 277 278 278 278 279 280 280 281 281 281 280 280 281 282 281 280 280 280 280 280 281 281 282 282 282 282 282 283 283 283 284 284 284 284 284 284 284 284 284 284 284 284 285 285 286 286 285 284 283 283 283 282 281 280 279 278 277 278
270 266 265 267 272 276 277 277 277 276 275 275 273 276 276 275 274 274 274 275 274 272 275 275 275 275 277 276 278 278 280 280 280 281 281 280 279 279 279 279 280 279 278 279 279 279 280 280 280 281 281 281 281 281 282 282 282 283 283 283 283 283 284 284 284 283 283 283 283 284 285 285 285 285 285 285 284 283 282 281 281 281 280 279 278 278
273 269 274 268 270 275 277 275 273 275 273 275 276 275 275 275 274 275 274 275 275 274 275 274 273 273 278 280 279 281 281 281 281 280 279 279 278 278 278 278 278 278 278 278 279 279 279 280 280 280 280 280 281 281 281 282 282 282 282 282 283 283 283 284 283 283 283 283 284 284 285 285 285 285 284 285 284 283 282 282 281 281 280 279 279 278
270 269 268 265 271 274 276 275 276 276 276 273 273 273 274 273 270 273 272 275 274 272 274 273 271 271 276 280 280 280 280 279 278 278 278 277 277 277 277 277 277 277 277 278 278 279 279 279 279 279 280 280 281 281 281 281 282 282 282 282 282 283 283 283 283 282 283 283 283 284 284 284 285 285 284 284 284 284 283 282 281 280 280 279 278 278
267 267 270 266 271 271 278 277 276 276 271 264 269 273 274 274 274 274 276 277 276 276 271 269 270 275 277 279 277 277 277 277 277 277 276 277 277 277 276 276 277 277 278 278 278 278 278 279 279 279 280 280 281 281 281 282 281 281 282 282 283 283 283 282 282 282 282 283 283 283 284 284 284 284 284 284 284 284 284 283 282 281 280 279 278 278
265 267 267 267 267 270 276 275 276 272 268 264 275 277 276 273 273 272 272 275 277 277 274 276 275 277 277 276 275 275 275 275 276 278 278 277 276 276 277 277 277 278 278 278 278 278 279 279 280 280 280 281 281 281 282 282 282 282 282 283 283 283 283 282 282 282 282 283 283 283 283 283 283 284 284 284 284 285 284 283 281 281 281 280 279 277
269 269 268 263 267 270 272 270 271 267 263 275 278 277 277 277 276 274 275 277 277 276 276 275 275 275 276 277 276 276 277 278 278 278 278 278 278 277 277 277 278 278 278 278 278 279 279 279 280 280 280 281 281 282 282 282 282 282 282 282 282 282 282 282 282 282 282 282 283 283 283 283 283 283 284 284 284 284 284 284 283 281 281 279 278 277
266 269 267 269 265 267 268 265 265 268 274 274 277 276 278 278 277 275 274 277 278 276 275 274 275 275 276 276 276 277 277 278 278 278 278 279 279 278 277 277 278 279 278 279 279 279 279 279 280 280 280 281 281 282 282 282 282 282 281 282 282 282 282 281 281 281 282 282 282 282 283 283 283 283 283 284 284 284 284 284 283 282 281 279 278 277
272 266 266 271 265 266 265 265 271 277 275 274 272 274 275 273 273 272 268 272 277 275 275 274 275 275 276 276 277 277 277 277 275 276 278 278 279 279 279 279 279 279 279 280 280 280 280 280 280 280 281 281 281 281 281 282 282 281 281 281 281 281 281 282 281 281 282 282 282 283 283 283 282 283 283 283 284 284 284 284 284 283 282 278 277 276
277 272 272 269 268 265 265 265 267 264 267 266 274 277 279 279 278 277 274 271 278 275 277 275 274 275 275 276 276 276 276 273 271 273 277 278 279 279 279 280 280 280 280 280 281 281 281 281 281 281 281 280 280 281 282 282 281 281 281 281 281 281 281 281 281 281 282 282 283 283 282 282 282 282 283 283 284 284 284 285 284 283 281 278 277 276
277 275 267 267 268 266 267 264 264 266 265 272 274 277 278 280 278 278 273 269 275 276 277 276 275 275 275 275 275 275 273 268 269 273 277 278 278 279 279 279 280 280 280 280 280 280 280 280 280 280 280 280 280 281 282 282 281 281 280 280 280 280 280 280 280 281 281 282 282 282 283 283 283 283 283 284 284 284 284 284 284 284 282 279 278 277
270 265 267 267 265 266 263 263 265 263 263 272 276 277 278 279 279 275 263 264 275 276 277 276 275 275 275 275 275 274 271 268 270 273 278 278 279 279 279 279 279 280 280 281 281 281 281 281 280 280 280 280 280 281 282 282 281 280 280 280 280 280 279 280 281 282 282 282 283 282 282 282 283 283 284 284 284 285 285 285 284 283 282 279 277 276
264 265 268 270 265 269 273 267 265 269 275 277 277 278 279 280 277 266 261 268 276 276 277 276 275 275 276 275 275 272 274 275 275 277 278 278 278 279 280 280 280 281 280 280 281 282 281 281 281 280 280 281 281 282 282 282 281 280 279 280 279 279 280 281 282 282 282 283 282 282 282 283 283 283 284 285 285 285 284 284 284 283 281 278 276 275
267 267 266 265 269 269 266 268 269 269 274 278 279 278 279 274 264 263 273 278 277 275 276 276 275 276 276 275 275 275 276 277 277 278 278 278 278 279 279 280 280 280 281 281 281 281 281 281 280 280 281 281 282 282 282 281 280 279 279 279 279 279 281 281 282 282 283 283 283 283 283 283 283 284 284 285 285 284 284 285 284 283 281 278 275 274
268 266 265 266 269 272 272 269 268 264 273 280 278 276 278 269 270 276 277 277 277 276 275 276 276 276 276 275 276 276 276 277 277 277 278 278 279 279 279 279 279 279 279 280 280 280 280 280 280 280 280 281 282 282 282 281 280 279 279 278 279 281 281 282 282 283 283 283 283 283 283 283 283 283 284 284 285 284 284 284 284 282 279 276 274 273
271 266 267 269 273 268 269 266 267 274 277 280 277 271 274 276 278 278 276 274 276 276 275 275 276 276 276 276 275 276 276 277 277 278 278 278 279 279 279 280 280 280 280 280 280 280 280 279 280 280 281 281 282 282 282 281 279 278 278 279 281 281 282 282 282 283 282 283 283 283 283 283 283 283 284 284 284 284 284 284 284 280 276 275 274 272
276 271 272 269 269 270 268 271 276 279 279 280 279 277 277 278 278 277 276 276 275 275 277 276 276 277 277 276 276 276 276 277 277 278 277 278 278 279 279 279 279 279 279 279 279 280 280 279 279 280 280 281 281 282 282 281 280 279 279 280 281 281 281 282 282 282 282 283 283 283 283 283 283 283 284 284 285 284 283 283 282 277 274 273 273 272
277 277 276 272 268 276 277 277 279 278 278 278 279 279 277 277 278 277 276 275 276 276 277 276 276 276 277 277 276 276 276 277 277 277 278 278 278 279 279 279 279 279 279 279 279 279 279 280 280 279 279 280 281 281 282 281 281 279 280 281 281 281 282 282 282 282 282 283 283 283 283 282 282 283 284 284 285 284 283 281 279 276 273 272 272 271
276 276 274 269 274 272 268 276 276 276 277 277 277 278 278 278 277 277 276 276 276 277 277 277 277 277 277 277 277 276 276 277 277 277 278 278 278 278 278 278 278 279 278 278 279 279 279 279 279 279 279 279 281 281 281 281 281 281 281 280 281 282 282 282 282 282 282 282 283 283 283 282 282 283 283 284 284 283 280 278 276 274 272 271 271 270
272 279 274 274 273 271 271 275 276 277 276 277 277 275 275 276 277 277 277 277 277 277 277 277 277 277 278 277 277 277 277 278 277 277 278 278 278 278 278 278 278 278 279 279 279 279 279 279 278 278 279 279 280 281 281 281 281 281 281 281 282 282 282 282 282 282 282 282 283 283 282 282 281 282 283 284 283 280 278 276 273 273 272 271 271 270
277 278 270 273 271 273 275 277 276 276 276 276 276 276 277 277 276 276 277 277 277 276 277 277 278 278 278 277 278 278 277 277 278 278 278 277 277 277 278 278 278 278 279 278 279 279 278 279 278 279 279 279 280 281 281 281 281 281 281 281 282 282 282 281 282 282 282 282 282 282 282 282 282 282 283 283 281 279 275 273 272 272 272 272 272 272
276 272 275 273 269 269 270 272 274 268 268 272 274 276 276 277 277 276 276 276 276 276 277 276 277 278 279 279 278 278 277 277 278 278 277 277 277 277 278 278 278 278 278 279 279 279 279 279 279 279 279 279 280 281 281 281 281 281 281 282 283 283 282 281 281 281 281 282 282 282 282 282 282 282 282 282 279 277 275 273 276 274 272 271 273 275
274 274 274 270 269 268 273 274 275 274 274 275 275 276 277 277 276 276 275 276 276 277 277 277 276 277 277 278 279 278 278 278 278 278 277 277 277 278 279 278 278 278 278 279 278 278 279 279 279 279 279 279 280 280 280 281 281 281 282 283 283 283 282 281 281 281 281 281 282 282 282 281 282 282 282 281 278 275 272 272 271 275 276 275 274 275
Wind_Speed
2 9 7 3 4 5 5 2 2 1 4 1 1 1 8 4 8 6 5 4 3 6 3 5 6 7 13 13 12 12 7 7 7 7 7 6 7 7 7 7 7 8 6 5 3 4 4 5 5 4 4 3 2 2 0 2 4 5 4 4 8 5 5 6 6 6 7 7 4 3 8 10 8 7 7 7 7 7 8 8 9 8 8 8 8 8
8 9 7 2 3 4 6 3 1 1 1 1 3 2 8 4 6 7 4 3 4 7 7 2 8 12 8 7 9 9 8 8 5 5 6 5 5 5 7 8 6 2 2 8 12 11 9 9 9 7 6 4 3 3 1 1 1 1 2 6 5 4 6 7 9 8 7 7 9 9 9 8 7 7 8 10 8 9 8 9 9 8 8 9 9 8
7 8 4 4 4 4 2 2 1 1 1 1 1 3 3 7 5 10 2 3 5 5 8 5 9 11 9 8 8 7 4 3 4 3 1 5 6 5 5 5 6 8 7 7 8 9 9 9 8 6 6 5 2 4 3 3 3 4 5 6 5 6 7 8 8 7 9 8 5 6 4 7 5 5 7 7 7 7 8 8 9 8 8 9 8 9
8 5 4 3 1 3 3 5 5 5 2 2 6 6 7 5 7 9 2 7 15 0 4 5 8 10 6 3 5 3 4 1 2 3 2 2 4 4 3 3 6 6 9 8 6 7 8 7 6 7 8 7 6 5 5 5 4 4 5 6 7 7 7 6 8 9 6 4 4 3 3 3 6 4 4 5 4 6 7 9 8 9 9 9 10 9
4 2 1 3 3 2 2 3 6 7 9 5 1 2 4 7 4 3 8 9 9 3 1 6 5 5 3 5 6 6 5 4 4 5 3 4 3 2 0 2 2 4 5 6 6 6 6 7 7 6 6 8 8 6 6 7 6 5 7 8 7 6 7 7 6 8 5 4 3 3 1 0 1 2 3 4 7 8 8 8 9 13 11 10 10 10
3 1 1 3 3 6 5 5 4 4 8 7 3 2 4 4 6 6 5 10 8 4 2 5 5 2 4 3 4 6 6 5 4 4 4 5 5 4 5 3 2 1 0 3 4 4 4 5 5 6 6 7 6 7 7 7 8 7 9 7 4 4 5 8 8 7 6 7 7 5 6 6 7 8 7 10 14 11 11 14 11 9 10 11 11 10
0 2 4 1 2 4 5 3 1 2 4 3 7 2 2 4 4 6 8 5 6 4 4 3 5 8 5 6 3 3 5 5 6 3 4 4 4 4 3 3 2 1 4 4 4 6 10 9 9 9 9 6 6 6 5 6 7 8 8 6 4 6 6 6 5 5 6 6 7 11 12 12 12 12 11 11 8 8 9 8 8 10 9 11 11 11
3 5 7 5 7 7 6 8 2 2 2 3 2 1 1 6 8 6 1 1 3 2 5 3 2 2 7 10 3 3 5 3 6 5 6 5 4 5 4 3 2 2 1 2 4 4 5 5 5 6 7 7 7 6 8 10 9 10 9 5 5 4 5 5 4 6 8 9 9 10 11 11 11 12 14 11 9 6 6 8 10 8 9 10 10 11
2 6 5 6 5 6 6 3 4 0 1 5 5 2 8 7 6 2 0 1 1 1 4 5 1 2 3 10 5 0 4 4 5 6 6 6 5 5 4 3 3 4 4 2 3 4 4 4 5 5 6 5 7 8 8 7 8 9 9 6 4 5 4 5 4 5 7 9 10 11 10 11 10 12 11 7 5 7 7 9 8 9 9 9 10 11
2 1 2 1 3 6 5 5 1 3 2 4 3 6 1 1 1 1 1 1 2 2 4 1 1 1 9 9 8 2 1 5 4 6 6 6 6 5 3 3 3 4 5 5 3 3 3 3 3 3 3 6 5 5 6 7 9 10 9 10 7 7 5 3 2 4 6 8 8 8 9 12 12 9 8 5 7 7 6 9 9 9 8 9 9 11
2 4 3 2 1 1 4 5 1 3 4 7 3 4 4 4 3 2 5 2 3 1 4 2 2 3 5 9 7 2 4 2 5 6 6 7 6 4 3 3 4 5 5 5 4 2 3 3 3 3 6 4 5 6 6 7 8 8 9 9 11 9 6 5 5 4 7 7 7 9 11 13 14 12 8 7 7 7 7 9 9 9 9 9 10 9
2 1 0 1 1 3 1 6 1 1 0 4 5 5 7 2 9 2 5 4 2 7 5 3 2 2 2 8 6 7 7 5 6 7 6 7 6 6 4 4 5 5 5 5 4 4 4 4 4 4 6 5 5 6 8 6 6 6 7 8 9 10 10 7 6 4 7 7 8 9 11 12 13 11 9 10 12 11 11 11 10 9 8 9 9 9
1 1 1 6 2 2 2 3 8 4 3 10 6 9 10 7 8 7 8 9 2 3 4 2 4 5 6 10 8 11 10 10 5 8 7 3 6 6 4 5 6 6 6 4 4 3 3 1 1 3 4 5 6 5 5 6 5 5 5 6 7 9 8 8 7 6 7 6 8 9 10 12 11 11 11 11 12 10 10 10 10 9 10 9 9 11
7 3 5 6 2 1 1 7 8 7 6 9 5 3 6 5 4 2 6 2 5 9 4 2 1 3 5 8 7 7 11 9 8 5 4 6 5 6 6 5 6 6 5 5 4 4 4 3 2 2 4 5 5 5 6 6 5 6 6 6 5 8 6 6 7 6 6 7 8 8 9 10 9 10 10 11 11 11 10 9 11 11 11 11 13 12
8 8 3 3 2 1 2 1 1 5 4 3 2 1 2 3 0 4 2 3 8 10 14 2 1 5 5 6 2 7 8 9 6 4 4 5 6 5 6 7 6 8 8 7 6 6 7 6 3 4 5 5 5 6 7 6 6 6 7 7 8 9 9 8 8 7 8 8 7 6 7 8 8 10 10 10 10 11 10 9 11 11 10 10 10 10
1 6 11 2 4 1 2 0 1 1 0 2 1 4 5 3 5 3 6 4 4 7 10 3 4 3 4 6 10 3 5 6 6 6 7 10 7 6 8 6 6 6 7 8 7 9 10 8 7 8 8 7 6 7 7 7 7 7 7 7 7 7 7 7 7 7 7 8 7 6 7 8 9 9 9 9 8 9 10 11 11 11 10 9 9 9
3 4 3 8 2 3 1 2 1 1 2 2 1 1 1 4 4 1 4 1 2 1 9 2 8 5 7 9 2 6 5 6 5 4 6 7 7 6 7 8 6 7 11 14 14 15 17 13 11 11 10 10 10 10 10 10 9 8 8 8 9 9 8 8 7 7 7 8 7 8 7 7 7 8 10 11 12 12 11 11 10 10 10 9 8 7
0 10 7 2 3 1 0 1 1 1 1 2 2 2 0 2 4 3 3 5 2 1 8 2 8 7 7 9 4 9 9 12 11 11 9 8 7 8 10 11 11 15 16 17 17 17 17 15 15 14 14 13 13 12 12 12 10 8 8 8 9 9 10 10 9 9 8 9 8 9 8 7 7 8 10 10 12 11 10 10 9 8 8 9 9 9
1 5 7 2 4 8 3 0 2 0 0 2 4 1 2 3 4 2 2 4 6 6 6 11 5 4 5 10 5 7 10 13 13 14 15 18 20 20 20 20 18 17 17 17 17 16 16 16 16 15 15 14 13 13 12 12 11 10 9 9 8 10 11 10 8 7 7 7 6 6 8 8 8 7 8 9 10 9 10 11 10 10 11 8 7 8
1 1 8 2 1 4 3 4 4 5 3 1 1 1 1 2 4 0 3 2 4 7 4 11 9 11 5 5 2 9 11 15 17 18 19 23 21 17 17 17 16 16 14 15 15 15 15 16 15 15 14 15 14 13 12 11 11 12 11 10 11 11 10 10 10 9 9 8 7 8 7 7 6 7 7 8 8 9 10 11 10 10 9 10 8 9
1 1 3 7 4 4 4 1 1 3 5 6 4 3 2 1 3 2 1 2 4 4 4 3 11 9 5 3 7 12 17 18 19 18 17 16 17 16 15 15 14 13 13 14 15 16 17 17 17 17 16 14 14 14 14 13 13 13 12 12 12 12 13 12 12 9 10 9 9 9 10 10 8 8 7 7 8 9 10 10 9 9 10 7 9 9
1 2 4 8 10 4 8 4 1 1 1 2 2 3 4 2 8 7 11 1 1 0 5 2 13 13 10 8 18 15 14 17 15 15 14 14 15 13 12 12 13 13 13 14 15 16 17 17 18 19 18 17 17 17 18 16 14 14 15 13 13 13 12 12 13 12 12 10 9 10 10 10 8 8 7 7 8 9 10 10 10 9 7 9 9 9
0 1 1 8 5 8 14 5 1 2 2 2 4 4 1 2 3 1 7 8 3 5 2 3 3 15 4 15 13 12 11 14 15 15 15 14 14 13 13 13 13 13 13 15 17 18 17 17 17 16 17 17 18 17 17 16 15 15 15 14 13 12 13 12 12 12 11 10 11 11 11 9 9 9 8 8 8 8 9 10 10 8 9 9 9 8
3 0 3 8 8 5 11 4 1 2 1 2 1 1 1 4 3 5 7 4 4 6 4 2 2 10 6 12 12 11 13 12 14 16 14 16 15 15 15 15 15 16 16 19 20 18 18 18 17 17 17 18 17 17 17 15 15 15 14 14 13 14 15 14 12 12 11 11 12 12 11 11 10 9 9 8 9 9 9 9 9 8 9 9 8 9
2 2 3 7 8 12 5 2 0 2 1 2 5 4 2 1 1 3 0 1 1 11 13 6 11 11 4 13 16 16 21 19 19 19 15 16 18 18 17 13 13 15 16 19 20 20 20 20 20 18 18 17 17 16 16 16 15 15 15 14 14 14 14 14 13 13 12 11 12 13 12 11 11 10 11 10 9 9 9 8 9 8 9 8 9 9
1 3 1 2 6 10 13 14 16 16 13 10 5 0 2 2 7 6 7 3 6 4 4 3 9 11 9 18 20 20 23 18 18 19 17 14 18 19 17 17 16 15 16 18 18 19 20 18 16 17 17 16 16 16 16 16 16 16 15 15 13 13 14 15 14 13 12 11 11 13 13 12 11 11 12 11 10 9 8 8 7 9 8 8 11 10
0 1 2 5 6 6 9 9 6 1 7 8 18 17 14 0 1 1 1 3 6 8 9 15 12 15 11 17 18 19 21 19 16 18 19 20 19 20 20 19 17 16 17 17 16 17 18 18 19 19 18 17 18 16 16 16 16 16 15 15 14 13 13 14 14 14 14 13 13 13 13 13 12 12 11 11 10 8 7 7 8 8 9 9 10 10
1 1 6 6 7 11 10 9 11 3 8 13 13 15 13 14 9 4 4 10 10 9 13 6 16 13 9 15 19 20 20 20 16 17 20 19 17 17 20 21 21 18 15 16 19 22 22 21 20 20 19 19 18 18 17 17 17 17 16 15 14 14 14 13 14 14 14 14 14 14 15 13 12 11 12 11 10 8 8 8 7 8 9 7 9 11
1 1 6 6 9 10 11 11 13 9 7 10 9 9 12 14 14 11 10 10 9 3 9 13 13 11 11 15 20 17 18 19 19 18 15 16 16 17 20 20 19 16 14 18 20 18 19 22 22 21 20 20 20 21 20 18 18 18 18 17 17 16 16 15 15 15 15 15 14 14 15 14 13 11 11 11 10 10 10 10 9 8 8 9 10 10
1 4 4 4 6 11 13 10 10 8 5 7 3 9 11 9 8 8 9 7 9 5 8 11 14 11 10 13 15 17 15 14 16 14 15 17 19 21 20 18 16 13 18 22 21 19 19 20 19 19 20 20 21 22 21 19 19 18 18 18 18 18 17 16 16 17 16 16 15 14 14 14 13 13 13 12 12 11 9 9 10 9 9 10 11 11
1 6 6 2 5 13 11 2 0 3 4 9 7 8 8 9 10 14 8 7 6 4 10 14 15 13 10 13 14 15 12 14 16 18 21 21 22 24 22 19 17 20 23 19 17 20 20 19 19 19 19 20 21 21 20 18 18 17 17 17 17 17 16 15 15 15 15 16 15 15 15 14 13 12 13 13 12 12 11 11 9 9 9 10 11 12
2 6 2 3 9 12 8 4 10 7 8 4 10 16 17 15 14 15 6 5 5 7 10 12 13 15 16 15 15 17 18 15 19 20 19 20 23 21 18 18 20 23 21 19 20 19 20 20 20 19 20 21 21 21 19 19 18 17 17 17 17 17 16 16 16 16 16 16 15 15 15 14 14 14 13 12 12 12 12 11 10 10 10 10 11 12
1 1 5 4 8 9 15 11 16 13 4 2 10 12 11 9 12 15 9 4 4 6 8 13 12 14 17 16 17 17 18 19 17 16 20 21 18 17 18 17 19 20 18 19 20 20 19 20 18 18 20 20 19 20 20 20 18 18 18 18 18 16 16 17 17 18 18 16 15 15 15 15 14 14 14 13 12 12 11 11 11 11 10 11 12 10
1 2 2 1 2 9 16 14 13 9 11 1 5 6 7 9 12 15 15 15 7 3 6 8 12 14 18 19 23 23 21 18 17 17 18 18 17 16 16 19 19 17 18 18 19 20 21 19 17 18 21 20 20 20 19 18 18 17 17 17 17 17 16 17 18 17 17 16 16 16 15 14 14 14 14 14 13 12 12 12 12 12 11 10 9 10
1 0 3 1 1 9 9 7 11 12 3 4 5 8 9 8 12 18 20 8 3 9 16 16 20 24 23 20 17 21 23 21 21 23 22 18 13 13 19 21 20 19 21 20 22 25 24 22 22 23 23 22 21 21 19 19 18 17 18 17 18 17 18 17 18 16 15 16 16 16 16 15 14 14 14 14 13 13 14 13 13 12 11 10 11 11
1 1 1 2 2 4 6 4 8 13 6 2 5 10 21 21 22 21 19 18 10 7 18 18 24 25 22 23 23 20 19 21 19 16 17 13 12 15 20 18 20 19 19 18 21 22 20 19 21 22 22 20 20 20 19 18 17 17 18 18 17 17 17 16 15 15 15 16 16 16 15 14 14 15 15 15 14 14 14 14 13 14 12 10 9 8
3 1 2 4 1 2 4 5 11 12 4 9 14 15 14 10 14 13 17 14 1 12 25 24 28 27 23 21 20 18 18 19 18 15 9 10 16 18 19 19 20 19 20 20 20 19 18 19 19 20 20 20 19 20 19 18 17 17 18 18 17 16 17 16 15 15 16 16 16 16 15 14 14 15 15 14 15 15 14 14 14 13 10 8 9 9
5 2 3 2 4 2 3 7 7 5 9 4 7 9 13 12 13 18 12 15 7 25 24 25 23 21 23 21 18 19 19 19 22 18 14 15 20 21 20 18 18 19 20 22 20 18 19 19 19 21 20 20 20 20 18 17 17 18 18 18 17 17 16 16 15 15 15 16 16 15 16 15 15 14 14 14 15 15 15 14 12 12 9 9 10 10
1 1 2 3 4 6 4 4 5 10 2 1 12 14 17 14 17 18 11 14 11 22 20 18 20 22 21 21 21 19 17 17 22 20 17 21 23 20 20 19 18 19 20 20 19 20 21 21 21 21 20 20 21 21 21 20 20 18 18 18 18 17 16 16 15 15 15 16 15 15 15 15 15 15 15 15 15 14 15 14 13 12 8 9 9 10
3 1 2 2 3 1 1 3 8 2 3 8 8 14 19 17 20 14 17 14 15 20 19 17 21 22 21 20 19 17 15 18 24 22 23 24 21 21 20 22 22 23 24 21 19 20 21 20 21 22 21 21 21 21 21 19 18 17 17 17 16 17 17 17 15 15 14 16 14 12 13 13 14 15 15 16 16 15 14 13 12 12 10 9 8 8
3 3 2 4 2 6 9 6 3 4 4 13 16 24 20 16 13 15 17 19 18 17 16 18 20 19 19 19 15 17 15 15 17 23 22 22 22 24 20 19 20 23 23 20 22 24 22 21 20 21 22 19 19 20 19 18 16 17 17 18 16 17 17 16 15 15 14 14 14 14 14 13 13 16 17 16 15 15 14 12 13 12 10 8 7 7
6 4 1 4 9 9 3 8 8 7 5 14 16 21 17 16 12 14 14 16 18 16 18 18 20 18 17 19 17 16 19 21 23 22 21 21 22 22 21 21 24 22 18 18 20 20 20 21 22 23 22 20 20 20 18 17 16 16 18 17 17 18 17 15 15 14 14 15 15 15 15 15 14 15 15 15 14 14 15 13 12 11 10 7 7 9
4 3 4 5 4 5 5 9 10 8 2 13 19 16 6 11 12 13 17 13 12 17 18 18 15 17 15 20 22 20 22 23 25 24 22 23 24 22 22 25 25 23 21 22 21 21 20 20 21 21 21 19 18 18 18 18 17 16 17 17 18 17 16 15 14 15 15 15 15 14 15 15 15 15 13 13 14 14 15 14 12 11 8 7 7 8
2 1 4 3 3 6 7 5 3 7 15 13 14 13 16 11 13 15 13 14 13 14 15 15 16 16 18 19 22 23 25 24 25 22 24 24 22 22 24 23 21 21 22 20 19 19 20 18 17 20 20 18 17 17 17 17 15 15 17 18 16 15 15 15 14 14 15 14 14 14 14 15 15 14 13 14 13 13 15 14 13 9 5 6 7 7
4 3 3 7 2 5 6 10 12 11 11 10 14 15 14 15 15 15 16 16 17 14 13 14 17 20 19 20 21 23 24 20 24 25 24 25 24 25 27 27 24 23 20 19 20 20 18 17 21 20 20 18 19 18 17 16 16 17 18 17 15 15 15 15 15 14 14 15 14 14 14 14 14 14 14 13 12 13 13 12 12 7 3 4 5 6
1 2 5 1 4 9 12 12 10 12 11 17 18 13 15 18 15 13 15 17 14 14 12 15 18 19 20 19 22 22 22 23 23 26 26 24 25 27 24 21 22 20 19 20 21 19 18 19 18 19 20 20 19 18 17 17 16 17 17 16 14 14 14 14 15 15 15 15 14 15 15 15 15 14 13 14 12 10 8 10 11 7 2 4 4 5
4 2 2 1 8 12 8 13 19 17 17 18 14 10 13 14 15 15 17 16 17 17 16 16 16 19 20 19 20 23 24 23 25 25 24 23 26 25 22 22 21 19 21 22 20 20 19 18 18 19 20 20 18 17 17 18 15 15 15 15 14 14 14 13 14 15 14 14 14 14 14 14 13 12 12 12 11 7 7 8 7 4 2 3 4 4
6 10 6 10 13 8 14 16 16 18 18 13 12 18 18 20 19 20 19 18 18 18 18 18 16 18 19 20 21 22 23 23 24 24 23 23 23 21 21 21 21 22 19 18 18 19 18 17 20 19 20 18 18 17 17 16 15 15 15 15 14 13 13 14 14 14 14 15 14 12 12 12 14 14 11 11 9 9 10 6 3 3 3 4 5 6
6 7 7 15 12 12 12 11 17 23 18 15 20 18 17 18 21 23 22 20 21 21 22 22 16 16 18 22 24 20 24 26 22 23 26 23 22 21 20 18 21 21 19 19 20 18 16 18 19 19 20 20 18 17 16 17 16 15 15 15 14 13 14 14 14 14 14 13 12 12 12 12 12 11 11 10 8 6 5 5 4 3 3 1 1 5
5 8 10 12 13 13 15 18 19 18 20 19 16 18 20 21 20 20 21 23 25 26 23 25 28 24 21 19 20 21 26 25 22 25 28 22 20 22 22 22 22 21 20 19 17 18 19 18 18 19 20 18 17 16 16 16 15 15 14 14 13 13 14 14 13 13 12 11 11 11 11 11 11 11 10 9 7 8 5 1 5 3 3 2 4 7
6 8 7 8 11 14 17 18 13 13 16 17 18 20 20 18 17 19 23 25 25 24 23 25 28 30 27 21 19 22 23 22 26 26 25 21 21 20 22 23 21 20 19 19 18 19 18 19 18 18 17 18 18 18 16 15 15 15 15 14 14 14 13 13 11 11 10 11 10 12 12 11 11 10 10 8 6 5 6 6 4 5 4 5 4 7
Wind_Direction
95 67 53 357 313 277 272 237 218 223 186 233 141 173 278 256 279 267 269 257 342 347 264 268 293 291 294 299 303 316 327 43 40 43 41 32 37 37 39 39 26 29 11 314 349 35 27 34 32 38 44 40 54 39 122 191 214 207 206 166 212 194 160 170 171 180 178 184 195 219 214 220 210 207 205 210 211 210 212 207 207 206 205 202 198 196
67 57 7 265 251 257 262 259 193 4 94 233 275 295 302 293 284 287 297 353 339 47 287 322 335 312 308 313 323 328 34 29 17 47 40 41 39 40 50 43 33 350 334 21 28 15 18 16 15 18 21 24 3 334 10 261 293 253 198 204 212 152 185 190 193 191 187 196 200 193 207 211 202 202 201 214 209 213 211 209 207 209 205 204 202 199
38 54 301 268 257 271 336 22 39 173 287 355 327 291 335 306 246 295 290 310 341 7 263 331 348 305 306 311 317 358 20 31 6 30 43 64 48 45 42 49 37 37 26 27 24 23 16 6 360 5 345 335 311 291 270 236 229 216 209 219 204 193 191 203 195 180 203 208 206 197 206 194 215 221 219 219 215 212 213 210 209 208 207 202 206 203
36 337 307 276 352 9 342 14 33 21 87 37 346 31 326 283 12 321 274 351 328 341 280 329 313 290 303 294 338 348 355 314 330 325 334 13 69 67 61 58 60 43 35 28 12 12 6 6 359 356 348 331 329 314 320 309 272 253 230 226 211 208 202 200 205 206 212 190 194 211 188 206 194 203 215 225 218 216 213 217 209 212 207 202 207 202
133 281 284 359 33 46 334 354 42 23 350 332 177 286 310 327 311 192 301 330 295 355 183 328 334 320 344 19 331 324 330 349 334 333 358 0 341 298 279 27 45 77 54 29 15 4 9 11 1 350 334 338 339 328 315 305 292 269 256 243 222 213 205 208 205 207 183 161 176 185 117 92 264 270 217 217 235 220 215 217 211 217 206 205 206 202
6 269 260 6 17 33 48 15 34 38 350 330 246 239 265 276 292 291 310 334 12 345 14 28 5 296 311 320 263 289 339 340 319 10 336 321 333 360 32 13 354 357 213 66 25 346 330 7 2 8 8 12 353 343 322 305 292 277 271 260 232 213 212 213 212 195 170 193 189 178 200 226 220 228 212 215 219 209 208 213 214 214 208 206 208 204
177 342 62 336 48 19 55 60 269 77 336 41 310 187 239 273 295 309 326 29 2 3 296 51 99 300 323 312 283 292 316 303 316 333 297 306 315 331 325 340 333 335 353 349 11 12 19 7 9 6 8 10 14 343 317 313 306 297 280 275 239 220 225 224 213 181 179 193 202 207 212 218 217 225 231 228 227 214 217 216 211 213 208 208 207 209
16 341 7 30 42 22 12 15 321 77 64 316 250 120 281 317 313 309 340 134 227 270 299 42 113 262 311 295 220 272 298 303 324 311 308 302 299 290 285 298 316 321 323 1 6 357 10 5 14 6 358 13 354 342 356 357 352 339 308 285 259 249 237 227 194 184 194 204 213 219 226 227 229 225 236 223 224 213 207 208 215 212 211 208 210 211
78 334 18 349 21 21 8 297 293 130 218 248 288 330 306 289 288 277 131 228 244 24 307 341 353 22 261 271 318 349 232 289 283 278 287 290 292 280 286 300 317 323 324 320 348 353 345 347 3 13 12 353 3 4 360 356 353 352 343 313 292 266 260 253 198 202 211 219 221 222 228 236 236 236 243 235 210 207 206 213 213 215 212 210 212 213
322 155 273 135 67 352 280 298 232 161 5 283 271 309 65 93 93 126 108 95 330 62 296 282 267 358 290 285 321 333 288 283 261 259 267 270 270 281 290 311 318 330 331 323 299 301 321 335 10 2 9 18 357 344 351 357 4 3 359 354 330 295 288 304 256 227 235 235 242 241 235 237 243 237 244 215 218 210 197 214 214 214 212 211 211 215
259 303 163 96 104 274 294 285 218 200 229 294 19 335 349 36 27 18 72 86 57 43 261 229 252 116 309 278 260 307 287 226 282 307 290 296 305 292 272 281 304 304 319 312 312 314 330 334 354 3 31 0 360 357 4 3 2 0 0 354 353 327 311 301 273 239 246 244 242 245 242 241 245 243 235 227 229 216 208 214 214 209 212 207 214 208
357 343 44 269 53 318 67 322 358 275 239 34 17 351 350 347 359 32 348 36 63 295 261 246 190 118 200 292 293 234 272 263 228 248 272 298 301 295 304 313 307 300 302 313 348 351 348 351 344 8 23 5 348 359 2 356 355 357 351 355 354 344 336 322 297 275 259 255 251 248 250 249 247 244 237 230 232 221 222 218 219 212 209 211 210 208
38 89 304 321 244 114 318 32 315 13 356 21 14 18 42 315 19 344 4 360 320 234 258 181 336 340 228 224 258 297 285 290 248 214 233 246 295 294 299 299 298 305 291 324 333 322 332 300 317 29 20 8 4 360 347 346 345 342 345 351 353 336 329 317 309 291 274 266 256 251 250 251 251 246 239 237 238 231 228 224 225 214 215 211 208 210
289 301 340 313 357 238 71 33 329 1 344 5 35 57 54 10 24 305 278 220 300 281 213 347 204 218 258 291 247 245 279 257 277 253 268 280 282 295 285 293 296 290 331 335 321 326 318 285 312 21 37 13 355 353 348 344 348 344 342 343 344 325 324 321 319 308 294 274 263 255 252 252 251 251 241 239 238 236 231 225 227 221 218 214 213 208
22 344 307 19 343 348 61 150 251 219 325 271 196 129 159 138 225 298 249 293 280 272 303 342 79 232 354 255 254 272 290 294 272 237 260 269 257 262 282 292 296 349 336 336 335 329 316 301 322 10 19 12 355 346 344 342 341 336 337 338 337 331 330 331 325 322 313 297 280 266 254 253 250 250 246 242 238 239 236 230 228 227 223 221 218 211
276 231 257 234 238 57 299 256 107 85 20 269 155 97 54 290 144 187 206 223 272 323 321 318 198 206 240 276 298 328 319 332 347 0 354 316 321 339 326 315 327 313 321 326 329 324 320 324 348 2 9 0 359 345 338 341 336 337 328 323 314 307 303 308 311 312 305 300 293 281 273 260 252 250 249 252 245 242 235 236 229 229 222 220 213 210
7 317 259 316 49 178 208 140 304 153 16 280 55 300 266 188 133 330 333 281 8 27 256 204 310 311 299 308 300 326 2 324 340 344 345 328 309 324 315 313 323 337 351 351 348 350 350 358 357 359 357 356 354 352 344 335 333 325 323 321 316 312 309 306 310 305 303 297 297 288 275 270 262 252 249 247 245 241 238 236 236 234 229 221 214 208
124 273 309 48 321 10 5 142 289 300 173 56 13 250 249 109 129 123 247 327 48 174 272 27 272 319 20 297 321 345 3 334 348 357 342 333 336 341 336 335 360 9 11 9 10 11 11 7 4 1 359 355 351 346 340 338 330 323 321 315 313 313 310 308 309 312 311 309 307 301 296 280 261 258 255 251 251 246 243 240 238 239 235 223 214 208
107 335 294 246 246 269 337 67 350 327 22 194 239 216 40 324 349 317 78 331 325 299 285 294 280 257 203 266 348 332 352 336 352 347 350 355 6 13 19 23 22 18 16 12 10 9 6 3 360 357 353 348 347 342 336 331 329 326 325 318 310 307 304 295 295 292 289 282 281 283 284 284 279 262 257 255 254 252 246 243 237 231 230 228 214 209
17 260 295 297 229 293 332 61 324 291 325 1 5 343 312 138 205 119 223 203 125 263 5 284 325 286 209 223 309 340 348 6 0 2 14 23 22 18 17 17 17 15 12 8 5 2 358 356 353 351 346 342 338 334 328 323 322 325 323 318 316 311 305 305 303 301 300 296 292 292 289 281 268 266 262 257 253 253 247 246 240 236 231 224 209 213
290 115 261 277 307 7 347 329 276 301 320 330 26 331 345 282 219 145 271 171 233 219 211 276 303 281 273 205 9 8 23 22 22 20 23 22 19 16 15 12 7 5 4 2 359 353 350 348 344 343 340 335 332 331 329 328 325 321 321 321 319 314 311 309 304 304 302 305 301 297 295 296 296 284 266 263 253 252 253 252 246 240 234 222 218 207
19 356 234 315 347 352 266 223 224 173 186 202 177 237 201 310 319 354 292 17 28 208 255 293 276 282 324 43 47 40 27 27 21 22 22 18 13 9 3 2 0 354 352 353 350 345 342 339 338 335 333 331 330 329 328 324 321 321 319 318 316 316 311 309 312 314 311 308 298 292 291 295 294 285 278 265 259 251 253 251 246 242 234 225 221 207
135 179 68 292 234 271 274 301 276 238 144 192 152 262 173 127 112 174 276 286 339 234 163 222 300 280 31 49 49 42 33 26 20 15 15 7 2 353 347 347 348 346 343 344 346 342 336 331 328 325 322 322 323 322 321 320 318 316 314 312 310 307 305 307 305 304 303 299 299 296 294 294 291 289 280 269 261 254 250 250 248 238 234 229 222 212
58 93 344 263 280 267 284 356 48 60 147 341 334 84 78 272 211 206 218 217 257 291 305 304 216 274 74 43 46 32 26 22 17 10 6 355 350 344 338 338 338 337 337 342 342 336 330 324 322 324 327 327 326 321 318 315 313 313 314 312 311 312 313 316 315 308 302 300 298 296 297 294 289 289 282 272 264 257 252 249 248 235 233 230 220 215
17 294 96 326 348 330 337 345 87 205 75 210 269 248 202 102 11 227 162 57 247 257 264 267 266 272 113 28 27 16 11 5 3 358 355 349 346 339 335 328 327 327 328 336 334 328 324 325 327 328 326 323 319 318 317 317 316 315 314 313 313 313 313 313 314 311 305 300 298 299 298 292 289 286 282 274 268 261 257 251 247 239 231 225 221 216
182 246 72 11 333 333 330 335 330 329 333 317 291 149 104 29 295 347 300 306 255 279 290 220 252 268 11 13 13 8 0 352 354 346 343 340 340 336 329 326 319 318 321 325 324 324 324 323 321 321 320 318 318 317 318 317 316 314 312 311 310 311 315 313 311 308 303 300 300 301 301 296 288 282 278 277 273 265 261 256 246 242 235 220 226 215
186 293 162 168 163 224 250 257 274 27 315 320 297 308 309 108 290 179 230 255 239 279 281 266 289 316 8 358 5 353 354 342 340 343 339 336 333 331 327 322 315 310 316 323 322 321 321 323 323 320 319 319 317 317 315 313 311 310 309 310 311 311 309 308 308 308 307 305 304 303 301 297 289 282 280 277 271 269 261 250 245 239 236 223 222 217
63 323 250 210 223 235 248 269 280 316 275 280 291 296 316 321 316 282 262 272 287 314 279 334 358 346 357 358 353 348 346 336 332 337 333 324 321 322 321 313 306 303 314 325 329 330 328 325 323 322 319 318 316 315 314 314 313 312 312 311 311 311 309 309 308 307 307 307 307 306 304 300 292 285 282 282 278 269 267 259 251 241 238 223 220 218
130 241 282 137 252 255 262 266 275 284 256 253 283 318 317 321 331 333 307 306 330 244 289 343 343 337 346 355 345 340 338 327 319 311 302 306 306 307 311 310 305 309 323 329 328 325 326 327 326 322 321 319 318 318 318 318 317 317 316 315 313 312 309 308 308 306 306 306 305 305 305 302 298 290 285 283 280 273 267 261 253 242 228 218 220 218
83 249 251 206 274 283 278 257 265 264 277 296 347 4 349 348 346 343 328 342 342 314 352 334 338 332 344 347 338 322 311 307 306 291 301 311 315 315 313 311 312 324 333 332 329 327 324 321 318 317 316 317 317 317 316 315 314 313 312 312 311 310 309 310 309 309 308 305 303 302 301 299 296 294 292 290 284 277 265 254 250 242 228 222 218 216
89 279 11 341 343 302 302 267 341 230 243 298 30 8 0 1 358 2 345 338 332 285 342 342 335 333 338 330 314 307 291 293 306 312 316 319 322 325 329 330 336 335 328 320 319 322 321 317 315 314 314 314 314 313 312 309 308 307 307 306 305 302 301 301 300 299 300 299 301 301 301 301 297 293 290 288 286 282 275 263 254 243 234 228 220 214
47 269 27 48 350 305 311 347 312 309 300 99 31 16 5 3 5 348 334 313 335 318 321 335 345 338 324 317 302 307 311 311 316 317 317 323 326 329 332 334 331 327 323 321 321 320 318 315 315 314 314 314 314 313 312 310 308 307 306 307 305 304 305 304 303 303 301 299 300 301 302 302 301 299 294 290 285 281 276 272 262 246 235 228 222 219
135 46 345 348 337 289 301 337 322 315 331 21 21 16 348 341 351 338 332 258 311 323 340 349 317 319 313 314 312 314 319 317 314 320 320 320 324 327 328 325 322 319 316 315 318 317 313 312 311 311 312 312 311 310 309 308 307 306 307 307 305 304 304 304 305 303 301 299 299 299 302 300 299 299 298 294 288 282 277 272 265 255 241 231 224 216
71 101 303 163 278 283 307 331 321 339 339 289 137 40 6 349 341 336 327 312 253 326 334 291 302 311 322 326 330 327 327 324 321 317 319 319 324 326 323 322 317 311 312 316 318 316 313 311 310 310 311 309 308 308 307 306 304 303 304 303 302 302 303 303 302 299 297 298 299 300 300 298 296 297 296 298 296 290 284 278 268 256 245 238 223 212
319 245 259 142 224 287 317 357 339 338 269 153 118 22 0 342 341 337 328 319 249 343 342 333 328 330 327 321 317 324 327 325 326 320 314 315 317 320 320 317 317 319 319 321 319 317 315 313 313 313 313 314 312 309 308 306 304 306 305 304 302 302 302 300 298 295 296 299 300 301 300 297 296 297 297 297 297 297 292 285 277 265 250 237 224 213
254 94 252 289 201 314 349 26 342 318 116 187 200 5 2 1 354 338 322 315 300 346 331 334 334 328 329 330 330 325 318 317 310 304 302 307 318 321 318 315 314 313 314 311 308 306 306 307 307 308 307 307 306 305 303 302 303 303 301 300 298 298 297 295 294 294 298 301 300 299 296 295 296 297 297 296 296 294 291 289 282 274 262 242 233 222
139 125 102 297 138 254 291 296 270 299 291 41 11 15 346 337 328 325 312 314 193 339 349 334 331 330 326 319 316 316 317 312 304 298 303 315 321 317 314 309 310 309 308 304 303 302 302 302 303 304 303 302 302 301 302 302 303 302 301 300 298 298 298 298 297 297 299 298 296 296 296 295 293 293 292 293 293 292 291 288 284 276 263 242 230 219
182 175 241 27 289 121 303 311 313 336 302 346 322 338 342 323 312 316 309 303 39 352 344 332 317 317 318 316 315 320 320 315 316 312 320 323 320 315 310 306 305 304 302 302 302 301 304 305 305 305 304 303 302 302 303 306 306 304 302 300 302 302 301 299 296 297 297 296 298 299 299 296 293 291 290 289 288 288 288 284 278 274 259 234 227 220
125 88 120 136 269 17 335 292 294 309 301 81 342 347 339 331 332 310 297 306 10 343 321 316 315 317 318 319 322 324 326 320 314 312 320 319 315 311 306 305 302 300 299 300 304 307 308 308 307 305 304 304 305 307 309 311 310 307 305 305 304 304 301 298 297 298 299 300 300 301 297 294 292 291 290 288 286 285 284 282 279 273 256 233 227 225
85 10 39 3 312 234 225 313 297 228 238 303 303 338 345 347 326 327 324 313 345 326 324 320 321 319 316 318 319 318 320 315 315 314 314 310 308 306 306 308 308 309 306 306 309 311 307 304 307 308 309 309 308 307 307 310 308 306 304 303 303 304 301 299 298 297 298 297 299 292 287 288 290 290 290 289 287 284 281 280 277 269 253 233 220 220
19 346 80 280 286 312 320 278 293 307 15 344 353 349 345 332 324 345 322 319 327 324 324 322 313 314 313 311 318 313 308 297 293 297 300 301 302 305 305 303 302 303 302 308 313 315 312 311 310 309 309 309 307 307 307 308 307 306 305 304 302 300 298 299 299 299 300 300 301 298 294 291 289 290 290 289 287 288 286 280 275 268 252 234 212 204
3 325 301 13 347 330 279 307 293 273 178 0 2 337 341 349 356 329 315 311 314 320 320 313 308 307 309 303 307 303 300 299 294 294 294 298 300 299 303 302 302 299 300 307 309 311 311 311 311 309 308 307 306 305 304 305 304 304 303 302 299 299 300 300 300 300 301 300 298 297 295 294 294 290 291 290 288 289 290 289 277 261 255 224 200 194
347 326 325 325 284 303 328 315 326 310 339 4 342 341 15 330 317 309 311 312 319 313 310 309 306 304 307 308 304 300 299 301 301 300 300 300 304 304 303 303 303 307 312 315 314 312 310 308 309 309 308 307 305 304 304 305 305 303 300 298 296 298 300 302 302 301 301 299 298 298 297 297 294 292 294 291 291 292 293 295 291 271 240 212 193 187
309 68 345 302 33 331 337 334 311 333 325 342 347 325 327 301 308 315 319 309 311 309 310 306 303 303 305 300 304 301 300 300 302 303 303 303 301 298 299 300 304 310 312 308 306 306 306 303 305 307 306 304 303 303 304 307 306 302 300 297 298 301 302 303 302 302 301 299 298 299 299 299 298 297 294 293 294 294 294 294 296 284 216 197 183 178
11 47 273 267 285 30 290 276 282 296 301 323 323 309 310 320 322 320 312 306 310 310 306 299 303 305 303 301 298 300 298 300 301 300 301 302 301 302 307 311 314 312 309 307 307 307 305 307 309 307 306 306 305 305 306 308 306 304 301 301 303 303 304 305 305 304 303 301 301 300 300 300 299 298 296 296 298 298 297 301 308 288 215 175 179 179
231 319 302 74 294 285 260 253 295 304 321 323 321 320 322 318 312 302 301 303 300 297 298 300 300 300 300 299 300 301 299 299 300 301 300 302 303 308 311 311 311 309 306 306 306 306 307 309 305 305 305 305 306 306 307 306 306 306 304 302 301 300 302 304 305 305 303 303 303 303 303 301 299 296 297 302 301 299 310 315 309 290 196 178 186 179
223 309 0 318 324 333 324 333 317 319 324 317 308 310 301 300 310 310 305 304 302 304 301 298 298 297 297 296 293 297 297 298 298 298 302 306 310 315 315 313 310 309 310 308 307 309 312 312 309 308 308 306 308 308 307 305 305 303 303 301 300 300 302 304 304 303 303 304 304 303 302 300 301 303 306 305 308 318 323 315 308 296 159 187 175 168
342 354 315 345 329 328 306 312 313 317 316 311 324 324 323 320 319 316 308 304 306 305 302 301 300 299 303 302 303 300 298 299 302 304 307 312 317 318 315 312 311 310 308 306 307 311 308 307 309 308 308 307 308 309 307 306 306 306 304 302 302 303 305 306 306 306 305 304 302 302 302 302 300 304 310 311 320 331 328 334 313 287 223 202 184 169
292 325 358 328 314 305 284 303 326 319 314 327 327 320 314 314 316 313 310 308 309 311 311 309 302 300 303 305 306 305 305 307 307 307 312 317 317 315 312 310 309 310 311 314 313 310 308 309 310 310 310 309 309 310 309 310 309 306 306 305 305 307 308 309 308 307 304 302 303 304 304 304 305 309 311 312 321 334 328 318 328 290 279 239 192 187
348 4 333 330 325 331 332 330 337 331 325 325 321 314 309 311 310 307 310 314 318 318 318 316 315 313 308 304 306 307 309 312 310 314 315 315 312 312 314 314 315 315 314 311 308 306 309 310 311 312 311 310 310 309 308 309 308 307 306 307 308 310 310 311 310 308 306 305 305 305 307 307 306 310 311 312 318 328 337 24 335 267 230 261 214 216
3 341 344 336 324 312 318 320 321 302 293 295 305 308 305 308 311 312 314 315 313 313 313 313 314 315 314 310 310 308 311 310 310 315 313 310 313 315 315 316 317 316 312 311 308 312 313 311 310 309 309 311 313 311 308 307 307 308 309 310 310 310 310 311 310 308 305 307 307 307 307 305 308 310 311 307 316 337 333 326 351 345 295 207 221 211